Cairns, Australia

1:32 PM AEST on July 25, 2017 (GMT +1000)
Cairns International

Weather History for YBCS - October, 2013

Change the Weather History Date:

Friday, October 25, 2013

  Actual Average Record
Temperature  
Mean Temperature 76 °F -  
Max Temperature 84 °F 87 °F 89 °F (2002)
Min Temperature 67 °F 72 °F 62 °F (2008)
Cooling Degree Days 10    
Growing Degree Days 26 (Base 50)    
Moisture  
Dew Point 64 °F    
Average Humidity 66    
Maximum Humidity 100    
Minimum Humidity 32    
Precipitation  
Precipitation 0.00 in 0.12 in - ()
Sea Level Pressure  
Sea Level Pressure 29.96 in    
Wind  
Wind Speed 6 mph ()    
Max Wind Speed 15 mph    
Max Gust Speed -    
Visibility 6.7 miles    
Events      
Averages and records for this station are not official NWS values.
T = Trace of Precipitation, MM = Missing Value Source: Averaged Metar Reports

Daily Weather History Graph

Daily Weather History Graph

Search for Another Location

Airport or City:

Trip Planner

Search our weather history database for the weather conditions in past years. The results will help you decide how hot, cold, wet, or windy it might be!

Date:

Astronomy

Oct. 25, 2013 Rise Set
Actual Time 5:42 AM AEST 6:19 PM AEST
Civil Twilight 5:20 AM AEST 6:41 PM AEST
Nautical Twilight 4:54 AM AEST 7:07 PM AEST
Astronomical Twilight 4:28 AM AEST 7:34 PM AEST
Moon 11:33 PM AEST 10:22 AM AEST
Length of Visible Light 13h 21m
Length of Day
12h 36m
Waning Gibbous, 68% of the Moon is Illuminated
Oct 25
Waning Gibbous
Oct 27
Last Quarter
Nov 3
New
Nov 10
First Quarter
Nov 18
Full

Hourly Weather History & Observations

Time (AEST) Temp. Heat Index Dew Point Humidity Pressure Visibility Wind Dir Wind Speed Gust Speed Precip Events Conditions
12:00 AM 69 °F - 67 °F 92% 29.91 in - Calm Calm - -  
12:00 AM 69.8 °F - 68.0 °F 94% 29.92 in 6.2 mi Calm Calm - N/A   Partly Cloudy
12:30 AM 69.8 °F - 68.0 °F 94% 29.89 in 6.2 mi Calm Calm - N/A   Partly Cloudy
1:00 AM 68 °F - 66 °F 92% 29.91 in - Calm Calm - -  
1:00 AM 68.0 °F - 66.2 °F 94% 29.89 in 6.2 mi Calm Calm - N/A   Partly Cloudy
1:30 AM 68.0 °F - 68.0 °F 100% 29.89 in 6.2 mi Calm Calm - N/A   Partly Cloudy
2:00 AM 69.8 °F - 66.2 °F 88% 29.89 in 6.2 mi South 4.6 mph - N/A   Partly Cloudy
2:30 AM 69.8 °F - 66.2 °F 88% 29.89 in 6.2 mi SSE 11.5 mph - N/A   Partly Cloudy
3:00 AM 71 °F - 66 °F 80% 29.90 in - SSE 9.2 mph - -  
3:00 AM 69.8 °F - 66.2 °F 88% 29.89 in 6.2 mi SSE 9.2 mph - N/A   Partly Cloudy
3:30 AM 69.8 °F - 66.2 °F 88% 29.89 in 6.2 mi SSE 6.9 mph - N/A   Partly Cloudy
4:00 AM 69 °F - 66 °F 87% 29.92 in - South 3.5 mph - -  
4:00 AM 68.0 °F - 66.2 °F 94% 29.92 in 6.2 mi South 3.5 mph - N/A   Partly Cloudy
4:30 AM 68.0 °F - 66.2 °F 94% 29.92 in 6.2 mi South 3.5 mph - N/A   Partly Cloudy
5:00 AM 68.0 °F - 66.2 °F 94% 29.95 in 6.2 mi South 5.8 mph - N/A   Partly Cloudy
5:30 AM 68.0 °F - 66.2 °F 94% 29.95 in 6.2 mi West 3.5 mph - N/A   Partly Cloudy
6:00 AM 69 °F - 65 °F 84% 29.96 in - SSE 4.6 mph - -  
6:00 AM 68.0 °F - 66.2 °F 94% 29.95 in 6.2 mi SSE 4.6 mph - N/A   Partly Cloudy
6:30 AM 69.8 °F - 66.2 °F 88% 29.98 in 6.2 mi SE 9.2 mph - N/A   Partly Cloudy
7:00 AM 75 °F - 65 °F 64% 29.99 in - SE 9.2 mph - -  
7:00 AM 75.2 °F - 66.2 °F 73% 29.98 in 6.2 mi SE 9.2 mph - N/A   Partly Cloudy
7:30 AM 77.0 °F - 64.4 °F 65% 29.98 in 6.2 mi SSE 10.4 mph - N/A   Partly Cloudy
8:00 AM 77.0 °F - 64.4 °F 65% 30.01 in 6.2 mi SSE 10.4 mph - N/A   Scattered Clouds
8:30 AM 77.0 °F - 62.6 °F 61% 30.01 in 6.2 mi South 9.2 mph - N/A   Partly Cloudy
9:00 AM 80 °F - 64 °F 49% 30.02 in 19 mi South 9.2 mph - -   Partly Cloudy
9:00 AM 80.6 °F 82.3 °F 64.4 °F 58% 30.01 in 6.2 mi South 9.2 mph - N/A   Partly Cloudy
9:30 AM 82.4 °F 83.4 °F 62.6 °F 51% 30.01 in 6.2 mi SE 13.8 mph - N/A   Partly Cloudy
10:00 AM 83 °F - 61 °F 37% 30.02 in - SSE 12.7 mph - -  
10:00 AM 82.4 °F 82.9 °F 60.8 °F 48% 30.01 in 6.2 mi SSE 12.7 mph - N/A   Partly Cloudy
10:30 AM 82.4 °F 82.5 °F 59.0 °F 45% 30.01 in 6.2 mi SE 10.4 mph - N/A   Partly Cloudy
11:00 AM 82.4 °F 82.9 °F 60.8 °F 48% 29.98 in 6.2 mi SE 10.4 mph - N/A   Partly Cloudy
11:30 AM 84.2 °F 84.4 °F 60.8 °F 45% 29.98 in 6.2 mi East 8.1 mph - N/A   Partly Cloudy
12:00 PM 84 °F - 61 °F 36% 29.97 in - ENE 13.8 mph - -  
12:00 PM 84.2 °F 84.4 °F 60.8 °F 45% 29.95 in 6.2 mi ENE 13.8 mph - N/A   Partly Cloudy
12:30 PM 84.2 °F 84.4 °F 60.8 °F 45% 29.95 in 6.2 mi NE 12.7 mph - N/A   Partly Cloudy
1:00 PM 84 °F - 59 °F 32% 29.95 in - ENE 10.4 mph - -  
1:00 PM 84.2 °F 83.8 °F 59.0 °F 42% 29.95 in 6.2 mi ENE 10.4 mph - N/A   Partly Cloudy
1:30 PM 84.2 °F 84.4 °F 60.8 °F 45% 29.92 in 6.2 mi NE 10.4 mph - N/A   Partly Cloudy
2:00 PM 82.4 °F 83.9 °F 64.4 °F 54% 29.92 in 6.2 mi NE 11.5 mph - N/A   Partly Cloudy
2:30 PM 84.2 °F 85.6 °F 64.4 °F 51% 29.92 in 6.2 mi NE 12.7 mph - N/A   Partly Cloudy
3:00 PM 84 °F - 62 °F 37% 29.92 in 19 mi NE 12.7 mph - -   Partly Cloudy
3:00 PM 84.2 °F 85.0 °F 62.6 °F 48% 29.92 in 6.2 mi NE 12.7 mph - N/A   Partly Cloudy
3:30 PM 84.2 °F 85.0 °F 62.6 °F 48% 29.92 in 6.2 mi ENE 15.0 mph - N/A   Partly Cloudy
4:00 PM 84 °F - 62 °F 38% 29.93 in - ENE 12.7 mph - -  
4:00 PM 84.2 °F 85.0 °F 62.6 °F 48% 29.92 in 6.2 mi ENE 12.7 mph - N/A   Partly Cloudy
4:30 PM 84.2 °F 83.8 °F 59.0 °F 42% 29.92 in 6.2 mi East 15.0 mph - N/A   Partly Cloudy
5:00 PM 82.4 °F 83.4 °F 62.6 °F 51% 29.92 in 6.2 mi East 13.8 mph - N/A   Partly Cloudy
5:30 PM 80.6 °F 81.8 °F 62.6 °F 54% 29.92 in 6.2 mi ESE 13.8 mph - N/A   Partly Cloudy
6:00 PM 79 °F - 64 °F 50% 29.95 in - SE 10.4 mph - -  
6:00 PM 78.8 °F - 64.4 °F 61% 29.95 in 6.2 mi SE 10.4 mph - N/A   Partly Cloudy
6:30 PM 77.0 °F - 64.4 °F 65% 29.95 in 6.2 mi SE 15.0 mph - N/A   Partly Cloudy
7:00 PM 77 °F - 64 °F 54% 29.98 in - SE 12.7 mph - -  
7:00 PM 77.0 °F - 64.4 °F 65% 29.98 in 6.2 mi SE 12.7 mph - N/A   Partly Cloudy
7:30 PM 75.2 °F - 64.4 °F 69% 29.98 in 6.2 mi South 6.9 mph - N/A   Partly Cloudy
8:00 PM 75.2 °F - 64.4 °F 69% 29.98 in 6.2 mi South 6.9 mph - N/A   Partly Cloudy
8:30 PM 75.2 °F - 64.4 °F 69% 29.98 in 6.2 mi South 5.8 mph - N/A   Partly Cloudy
9:00 PM 75 °F - 65 °F 63% 30.01 in - South 6.9 mph - -  
9:00 PM 75.2 °F - 64.4 °F 69% 30.01 in 6.2 mi South 6.9 mph - N/A   Partly Cloudy
9:30 PM 75.2 °F - 64.4 °F 69% 30.01 in 6.2 mi South 10.4 mph - N/A   Partly Cloudy
10:00 PM 75 °F - 64 °F 62% 30.02 in - SSE 10.4 mph - -  
10:00 PM 75.2 °F - 64.4 °F 69% 30.01 in 6.2 mi SSE 10.4 mph - N/A   Partly Cloudy
10:30 PM 75.2 °F - 64.4 °F 69% 30.01 in 6.2 mi South 9.2 mph - N/A   Partly Cloudy
11:00 PM 75.2 °F - 64.4 °F 69% 30.01 in 6.2 mi South 8.1 mph - N/A   Partly Cloudy
11:30 PM 73.4 °F - 64.4 °F 73% 30.01 in 6.2 mi SSE 8.1 mph - N/A   Partly Cloudy